Year,Month,Day,Hour,Minute,Value (Times are PST for barometer in hPa)
2016,10,14,00,00,982.12
2016,10,14,00,01,982.09
2016,10,14,00,02,982.09
2016,10,14,00,03,982.10
2016,10,14,00,04,982.15
2016,10,14,00,05,982.11
2016,10,14,00,06,982.08
2016,10,14,00,07,982.01
2016,10,14,00,08,981.95
2016,10,14,00,09,982.00
2016,10,14,00,10,982.04
2016,10,14,00,11,981.96
2016,10,14,00,12,981.82
2016,10,14,00,13,981.78
2016,10,14,00,14,981.74
2016,10,14,00,15,981.68
2016,10,14,00,16,981.71
2016,10,14,00,17,981.66
2016,10,14,00,18,981.56
2016,10,14,00,19,981.62
2016,10,14,00,20,981.70
2016,10,14,00,21,981.65
2016,10,14,00,22,981.65
2016,10,14,00,23,981.67
2016,10,14,00,24,981.60
2016,10,14,00,25,981.56
2016,10,14,00,26,981.62
2016,10,14,00,27,981.65
2016,10,14,00,28,981.68
2016,10,14,00,29,981.68
2016,10,14,00,30,981.64
2016,10,14,00,31,981.58
2016,10,14,00,32,981.62
2016,10,14,00,33,981.66
2016,10,14,00,34,981.71
2016,10,14,00,35,981.72
2016,10,14,00,36,981.75
2016,10,14,00,37,981.75
2016,10,14,00,38,981.72
2016,10,14,00,39,981.78
2016,10,14,00,40,981.76
2016,10,14,00,41,981.83
2016,10,14,00,42,981.85
2016,10,14,00,43,981.88
2016,10,14,00,44,981.86
2016,10,14,00,45,981.71
2016,10,14,00,46,981.72
2016,10,14,00,47,981.78
2016,10,14,00,48,981.80
2016,10,14,00,49,981.92
2016,10,14,00,50,981.87
2016,10,14,00,51,981.82
2016,10,14,00,52,981.81
2016,10,14,00,53,981.72
2016,10,14,00,54,981.78
2016,10,14,00,55,981.74
2016,10,14,00,56,981.69
2016,10,14,00,57,981.58
2016,10,14,00,58,981.57
2016,10,14,00,59,981.70
2016,10,14,01,00,981.83
2016,10,14,01,01,981.84
2016,10,14,01,02,981.79
2016,10,14,01,03,981.82
2016,10,14,01,04,981.82
2016,10,14,01,05,981.79
2016,10,14,01,06,981.85
2016,10,14,01,07,981.85
2016,10,14,01,08,981.89
2016,10,14,01,09,981.92
2016,10,14,01,10,981.94
2016,10,14,01,11,981.84
2016,10,14,01,12,981.78
2016,10,14,01,13,981.76
2016,10,14,01,14,981.80
2016,10,14,01,15,981.93
2016,10,14,01,16,982.03
2016,10,14,01,17,982.10
2016,10,14,01,18,982.15
2016,10,14,01,19,982.14
2016,10,14,01,20,982.04
2016,10,14,01,21,982.00
2016,10,14,01,22,982.10
2016,10,14,01,23,982.15
2016,10,14,01,24,982.13
2016,10,14,01,25,982.03
2016,10,14,01,26,982.11
2016,10,14,01,27,982.26
2016,10,14,01,28,982.30
2016,10,14,01,29,982.37
2016,10,14,01,30,982.43
2016,10,14,01,31,982.46
2016,10,14,01,32,982.41
2016,10,14,01,33,982.33
2016,10,14,01,34,982.41
2016,10,14,01,35,982.47
2016,10,14,01,36,982.37
2016,10,14,01,37,982.47
2016,10,14,01,38,982.53
2016,10,14,01,39,982.54
2016,10,14,01,40,982.62
2016,10,14,01,41,982.60
2016,10,14,01,42,982.67
2016,10,14,01,43,982.69
2016,10,14,01,44,982.66
2016,10,14,01,45,982.64
2016,10,14,01,46,982.70
2016,10,14,01,47,982.71
2016,10,14,01,48,982.75
2016,10,14,01,49,982.86
2016,10,14,01,50,982.84
2016,10,14,01,51,982.91
2016,10,14,01,52,982.98
2016,10,14,01,53,983.08
2016,10,14,01,54,983.09
2016,10,14,01,55,983.04
2016,10,14,01,56,983.08
2016,10,14,01,57,983.12
2016,10,14,01,58,983.25
2016,10,14,01,59,983.31
2016,10,14,02,00,983.31
2016,10,14,02,01,983.31
2016,10,14,02,02,983.34
2016,10,14,02,03,983.36
2016,10,14,02,04,983.31
2016,10,14,02,05,983.31
2016,10,14,02,06,983.32
2016,10,14,02,07,983.38
2016,10,14,02,08,983.42
2016,10,14,02,09,983.51
2016,10,14,02,10,983.53
2016,10,14,02,11,983.48
2016,10,14,02,12,983.52
2016,10,14,02,13,983.61
2016,10,14,02,14,983.62
2016,10,14,02,15,983.72
2016,10,14,02,16,983.82
2016,10,14,02,17,983.85
2016,10,14,02,18,983.87
2016,10,14,02,19,983.98
2016,10,14,02,20,983.95
2016,10,14,02,21,983.96
2016,10,14,02,22,983.99
2016,10,14,02,23,984.05
2016,10,14,02,24,984.06
2016,10,14,02,25,984.12
2016,10,14,02,26,984.15
2016,10,14,02,27,984.12
2016,10,14,02,28,984.16
2016,10,14,02,29,984.25
2016,10,14,02,30,984.25
2016,10,14,02,31,984.27
2016,10,14,02,32,984.38
2016,10,14,02,33,984.46
2016,10,14,02,34,984.46
2016,10,14,02,35,984.46
2016,10,14,02,36,984.48
2016,10,14,02,37,984.61
2016,10,14,02,38,984.74
2016,10,14,02,39,984.80
2016,10,14,02,40,984.83
2016,10,14,02,41,984.82
2016,10,14,02,42,984.91
2016,10,14,02,43,985.00
2016,10,14,02,44,985.03
2016,10,14,02,45,985.03
2016,10,14,02,46,985.04
2016,10,14,02,47,985.11
2016,10,14,02,48,985.18
2016,10,14,02,49,985.24
2016,10,14,02,50,985.28
2016,10,14,02,51,985.37
2016,10,14,02,52,985.41
2016,10,14,02,53,985.42
2016,10,14,02,54,985.53
2016,10,14,02,55,985.61
2016,10,14,02,56,985.62
2016,10,14,02,57,985.68
2016,10,14,02,58,985.71
2016,10,14,02,59,985.74
2016,10,14,03,00,985.73
2016,10,14,03,01,985.72
2016,10,14,03,02,985.79
2016,10,14,03,03,985.85
2016,10,14,03,04,985.88
2016,10,14,03,05,985.85
2016,10,14,03,06,985.74
2016,10,14,03,07,985.54
2016,10,14,03,08,985.42
2016,10,14,03,09,985.28
2016,10,14,03,10,985.14
2016,10,14,03,11,985.13
2016,10,14,03,12,985.20
2016,10,14,03,13,985.24
2016,10,14,03,14,985.17
2016,10,14,03,15,985.13
2016,10,14,03,16,985.13
2016,10,14,03,17,985.23
2016,10,14,03,18,985.34
2016,10,14,03,19,985.44
2016,10,14,03,20,985.41
2016,10,14,03,21,985.47
2016,10,14,03,22,985.51
2016,10,14,03,23,985.51
2016,10,14,03,24,985.51
2016,10,14,03,25,985.51
2016,10,14,03,26,985.57
2016,10,14,03,27,985.57
2016,10,14,03,28,985.68
2016,10,14,03,29,985.61
2016,10,14,03,30,985.61
2016,10,14,03,31,985.74
2016,10,14,03,32,985.81
2016,10,14,03,33,985.85
2016,10,14,03,34,985.85
2016,10,14,03,35,985.81
2016,10,14,03,36,985.71
2016,10,14,03,37,985.61
2016,10,14,03,38,985.64
2016,10,14,03,39,985.57
2016,10,14,03,40,985.47
2016,10,14,03,41,985.44
2016,10,14,03,42,985.51
2016,10,14,03,43,985.51
2016,10,14,03,44,985.57
2016,10,14,03,45,985.54
2016,10,14,03,46,985.51
2016,10,14,03,47,985.47
2016,10,14,03,48,985.44
2016,10,14,03,49,985.30
2016,10,14,03,50,985.24
2016,10,14,03,51,985.24
2016,10,14,03,52,985.14
2016,10,14,03,53,985.17
2016,10,14,03,54,985.07
2016,10,14,03,55,985.13
2016,10,14,03,56,985.24
2016,10,14,03,57,985.27
2016,10,14,03,58,985.34
2016,10,14,03,59,985.37
2016,10,14,04,00,985.41
2016,10,14,04,01,985.47
2016,10,14,04,02,985.54
2016,10,14,04,03,985.57
2016,10,14,04,04,985.64
2016,10,14,04,05,985.64
2016,10,14,04,06,985.68
2016,10,14,04,07,985.64
2016,10,14,04,08,985.61
2016,10,14,04,09,985.57
2016,10,14,04,10,985.54
2016,10,14,04,11,985.47
2016,10,14,04,12,985.47
2016,10,14,04,13,985.47
2016,10,14,04,14,985.47
2016,10,14,04,15,985.44
2016,10,14,04,16,985.41
2016,10,14,04,17,985.37
2016,10,14,04,18,985.34
2016,10,14,04,19,985.34
2016,10,14,04,20,985.34
2016,10,14,04,21,985.30
2016,10,14,04,22,985.27
2016,10,14,04,23,985.27
2016,10,14,04,24,985.24
2016,10,14,04,25,985.20
2016,10,14,04,26,985.17
2016,10,14,04,27,985.13
2016,10,14,04,28,985.17
2016,10,14,04,29,985.10
2016,10,14,04,30,985.10
2016,10,14,04,31,985.10
2016,10,14,04,32,985.13
2016,10,14,04,33,985.13
2016,10,14,04,34,985.13
2016,10,14,04,35,985.10
2016,10,14,04,36,985.17
2016,10,14,04,37,985.17
2016,10,14,04,38,985.17
2016,10,14,04,39,985.17
2016,10,14,04,40,985.17
2016,10,14,04,41,985.17
2016,10,14,04,42,985.20
2016,10,14,04,43,985.24
2016,10,14,04,44,985.24
2016,10,14,04,45,985.27
2016,10,14,04,46,985.34
2016,10,14,04,47,985.30
2016,10,14,04,48,985.37
2016,10,14,04,49,985.51
2016,10,14,04,50,985.51
2016,10,14,04,51,985.61
2016,10,14,04,52,985.71
2016,10,14,04,53,985.71
2016,10,14,04,54,985.64
2016,10,14,04,55,985.64
2016,10,14,04,56,985.61
2016,10,14,04,57,985.64
2016,10,14,04,58,985.64
2016,10,14,04,59,985.68
2016,10,14,05,00,985.61
2016,10,14,05,01,985.57
2016,10,14,05,02,985.47
2016,10,14,05,03,985.54
2016,10,14,05,04,985.61
2016,10,14,05,05,985.68
2016,10,14,05,06,985.68
2016,10,14,05,07,985.71
2016,10,14,05,08,985.68
2016,10,14,05,09,985.68
2016,10,14,05,10,985.64
2016,10,14,05,11,985.71
2016,10,14,05,12,985.64
2016,10,14,05,13,985.71
2016,10,14,05,14,985.71
2016,10,14,05,15,985.71
2016,10,14,05,16,985.71
2016,10,14,05,17,985.78
2016,10,14,05,18,985.81
2016,10,14,05,19,985.85
2016,10,14,05,20,985.78
2016,10,14,05,21,985.88
2016,10,14,05,22,985.91
2016,10,14,05,23,985.95
2016,10,14,05,24,985.95
2016,10,14,05,25,985.88
2016,10,14,05,26,985.91
2016,10,14,05,27,985.88
2016,10,14,05,28,985.85
2016,10,14,05,29,985.88
2016,10,14,05,30,985.95
2016,10,14,05,31,985.95
2016,10,14,05,32,986.02
2016,10,14,05,33,986.08
2016,10,14,05,34,986.08
2016,10,14,05,35,986.15
2016,10,14,05,36,986.15
2016,10,14,05,37,986.22
2016,10,14,05,38,986.25
2016,10,14,05,39,986.42
2016,10,14,05,40,986.35
2016,10,14,05,41,986.49
2016,10,14,05,42,986.49
2016,10,14,05,43,986.49
2016,10,14,05,44,986.46
2016,10,14,05,45,986.46
2016,10,14,05,46,986.42
2016,10,14,05,47,986.32
2016,10,14,05,48,986.29
2016,10,14,05,49,986.22
2016,10,14,05,50,986.12
2016,10,14,05,51,986.08
2016,10,14,05,52,986.02
2016,10,14,05,53,985.98
2016,10,14,05,54,985.95
2016,10,14,05,55,985.91
2016,10,14,05,56,985.98
2016,10,14,05,57,986.02
2016,10,14,05,58,985.98
2016,10,14,05,59,985.95
2016,10,14,06,00,985.95
2016,10,14,06,01,985.88
2016,10,14,06,02,985.88
2016,10,14,06,03,985.85
2016,10,14,06,04,985.88
2016,10,14,06,05,985.88
2016,10,14,06,06,985.91
2016,10,14,06,07,985.98
2016,10,14,06,08,986.12
2016,10,14,06,09,986.15
2016,10,14,06,10,986.25
2016,10,14,06,11,986.22
2016,10,14,06,12,986.25
2016,10,14,06,13,986.32
2016,10,14,06,14,986.35
2016,10,14,06,15,986.35
2016,10,14,06,16,986.35
2016,10,14,06,17,986.42
2016,10,14,06,18,986.52
2016,10,14,06,19,986.56
2016,10,14,06,20,986.52
2016,10,14,06,21,986.56
2016,10,14,06,22,986.56
2016,10,14,06,23,986.59
2016,10,14,06,24,986.56
2016,10,14,06,25,986.59
2016,10,14,06,26,986.62
2016,10,14,06,27,986.62
2016,10,14,06,28,986.66
2016,10,14,06,29,986.59
2016,10,14,06,30,986.52
2016,10,14,06,31,986.52
2016,10,14,06,32,986.49
2016,10,14,06,33,986.49
2016,10,14,06,34,986.49
2016,10,14,06,35,986.49
2016,10,14,06,36,986.42
2016,10,14,06,37,986.39
2016,10,14,06,38,986.39
2016,10,14,06,39,986.35
2016,10,14,06,40,986.35
2016,10,14,06,41,986.32
2016,10,14,06,42,986.39
2016,10,14,06,43,986.32
2016,10,14,06,44,986.29
2016,10,14,06,45,986.22
2016,10,14,06,46,986.25
2016,10,14,06,47,986.25
2016,10,14,06,48,986.25
2016,10,14,06,49,986.32
2016,10,14,06,50,986.39
2016,10,14,06,51,986.39
2016,10,14,06,52,986.29
2016,10,14,06,53,986.18
2016,10,14,06,54,986.08
2016,10,14,06,55,986.02
2016,10,14,06,56,986.05
2016,10,14,06,57,986.02
2016,10,14,06,58,985.98
2016,10,14,06,59,985.98
2016,10,14,07,00,986.02
2016,10,14,07,01,986.05
2016,10,14,07,02,986.12
2016,10,14,07,03,986.15
2016,10,14,07,04,986.12
2016,10,14,07,05,986.15
2016,10,14,07,06,986.29
2016,10,14,07,07,986.32
2016,10,14,07,08,986.32
2016,10,14,07,09,986.35
2016,10,14,07,10,986.35
2016,10,14,07,11,986.35
2016,10,14,07,12,986.35
2016,10,14,07,13,986.42
2016,10,14,07,14,986.35
2016,10,14,07,15,986.39
2016,10,14,07,16,986.35
2016,10,14,07,17,986.42
2016,10,14,07,18,986.52
2016,10,14,07,19,986.56
2016,10,14,07,20,986.62
2016,10,14,07,21,986.59
2016,10,14,07,22,986.66
2016,10,14,07,23,986.59
2016,10,14,07,24,986.56
2016,10,14,07,25,986.56
2016,10,14,07,26,986.43
2016,10,14,07,27,986.25
2016,10,14,07,28,986.18
2016,10,14,07,29,986.15
2016,10,14,07,30,986.18
2016,10,14,07,31,986.22
2016,10,14,07,32,986.18
2016,10,14,07,33,986.15
2016,10,14,07,34,986.12
2016,10,14,07,35,986.15
2016,10,14,07,36,986.15
2016,10,14,07,37,986.15
2016,10,14,07,38,986.12
2016,10,14,07,39,986.12
2016,10,14,07,40,986.17
2016,10,14,07,41,986.08
2016,10,14,07,42,986.15
2016,10,14,07,43,986.12
2016,10,14,07,44,986.15
2016,10,14,07,45,986.15
2016,10,14,07,46,986.15
2016,10,14,07,47,986.18
2016,10,14,07,48,986.29
2016,10,14,07,49,986.29
2016,10,14,07,50,986.35
2016,10,14,07,51,986.32
2016,10,14,07,52,986.32
2016,10,14,07,53,986.35
2016,10,14,07,54,986.42
2016,10,14,07,55,986.42
2016,10,14,07,56,986.42
2016,10,14,07,57,986.32
2016,10,14,07,58,986.29
2016,10,14,07,59,986.22
2016,10,14,08,00,986.18
2016,10,14,08,01,986.05
2016,10,14,08,02,986.02
2016,10,14,08,03,985.98
2016,10,14,08,04,985.98
2016,10,14,08,05,986.05
2016,10,14,08,06,986.02
2016,10,14,08,07,986.02
2016,10,14,08,08,986.02
2016,10,14,08,09,986.02
2016,10,14,08,10,986.02
2016,10,14,08,11,986.02
2016,10,14,08,12,985.98
2016,10,14,08,13,985.88
2016,10,14,08,14,985.81
2016,10,14,08,15,985.68
2016,10,14,08,16,985.74
2016,10,14,08,17,985.68
2016,10,14,08,18,985.78
2016,10,14,08,19,985.71
2016,10,14,08,20,985.68
2016,10,14,08,21,985.74
2016,10,14,08,22,985.68
2016,10,14,08,23,985.81
2016,10,14,08,24,985.81
2016,10,14,08,25,985.74
2016,10,14,08,26,985.78
2016,10,14,08,27,985.78
2016,10,14,08,28,985.85
2016,10,14,08,29,985.88
2016,10,14,08,30,985.91
2016,10,14,08,31,985.98
2016,10,14,08,32,985.95
2016,10,14,08,33,985.88
2016,10,14,08,34,985.95
2016,10,14,08,35,985.91
2016,10,14,08,36,985.91
2016,10,14,08,37,985.85
2016,10,14,08,38,985.82
2016,10,14,08,39,985.91
2016,10,14,08,40,985.89
2016,10,14,08,41,986.02
2016,10,14,08,42,985.88
2016,10,14,08,43,985.88
2016,10,14,08,44,985.88
2016,10,14,08,45,985.78
2016,10,14,08,46,985.68
2016,10,14,08,47,985.68
2016,10,14,08,48,985.64
2016,10,14,08,49,985.61
2016,10,14,08,50,985.61
2016,10,14,08,51,985.68
2016,10,14,08,52,985.64
2016,10,14,08,53,985.68
2016,10,14,08,54,985.71
2016,10,14,08,55,985.71
2016,10,14,08,56,985.68
2016,10,14,08,57,985.71
2016,10,14,08,58,985.68
2016,10,14,08,59,985.61
2016,10,14,09,00,985.54
2016,10,14,09,01,985.51
2016,10,14,09,02,985.51
2016,10,14,09,03,985.51
2016,10,14,09,04,985.54
2016,10,14,09,05,985.51
2016,10,14,09,06,985.51
2016,10,14,09,07,985.44
2016,10,14,09,08,985.44
2016,10,14,09,09,985.41
2016,10,14,09,10,985.41
2016,10,14,09,11,985.37
2016,10,14,09,12,985.30
2016,10,14,09,13,985.24
2016,10,14,09,14,985.10
2016,10,14,09,15,985.07
2016,10,14,09,16,985.03
2016,10,14,09,17,985.03
2016,10,14,09,18,985.10
2016,10,14,09,19,985.24
2016,10,14,09,20,985.30
2016,10,14,09,21,985.37
2016,10,14,09,22,985.41
2016,10,14,09,23,985.47
2016,10,14,09,24,985.51
2016,10,14,09,25,985.57
2016,10,14,09,26,985.61
2016,10,14,09,27,985.64
2016,10,14,09,28,985.68
2016,10,14,09,29,985.74
2016,10,14,09,30,985.74
2016,10,14,09,31,985.74
2016,10,14,09,32,985.71
2016,10,14,09,33,985.71
2016,10,14,09,34,985.68
2016,10,14,09,35,985.71
2016,10,14,09,36,985.71
2016,10,14,09,37,985.71
2016,10,14,09,38,985.78
2016,10,14,09,39,985.78
2016,10,14,09,40,985.64
2016,10,14,09,41,985.64
2016,10,14,09,42,985.64
2016,10,14,09,43,985.61
2016,10,14,09,44,985.64
2016,10,14,09,45,985.68
2016,10,14,09,46,985.71
2016,10,14,09,47,985.71
2016,10,14,09,48,985.81
2016,10,14,09,49,985.81
2016,10,14,09,50,985.78
2016,10,14,09,51,985.68
2016,10,14,09,52,985.64
2016,10,14,09,53,985.57
2016,10,14,09,54,985.47
2016,10,14,09,55,985.41
2016,10,14,09,56,985.34
2016,10,14,09,57,985.27
2016,10,14,09,58,985.27
2016,10,14,09,59,985.27
2016,10,14,10,00,985.20
2016,10,14,10,01,985.20
2016,10,14,10,02,985.13
2016,10,14,10,03,985.03
2016,10,14,10,04,985.00
2016,10,14,10,05,984.97
2016,10,14,10,06,984.97
2016,10,14,10,07,984.90
2016,10,14,10,08,984.90
2016,10,14,10,09,984.86
2016,10,14,10,10,984.97
2016,10,14,10,11,984.97
2016,10,14,10,12,984.90
2016,10,14,10,13,984.80
2016,10,14,10,14,984.76
2016,10,14,10,15,984.80
2016,10,14,10,16,984.80
2016,10,14,10,17,984.76
2016,10,14,10,18,984.73
2016,10,14,10,19,984.80
2016,10,14,10,20,984.80
2016,10,14,10,21,984.76
2016,10,14,10,22,984.76
2016,10,14,10,23,984.76
2016,10,14,10,24,984.66
2016,10,14,10,25,984.73
2016,10,14,10,26,984.73
2016,10,14,10,27,984.80
2016,10,14,10,28,984.86
2016,10,14,10,29,984.93
2016,10,14,10,30,984.93
2016,10,14,10,31,984.97
2016,10,14,10,32,984.90
2016,10,14,10,33,984.93
2016,10,14,10,34,984.90
2016,10,14,10,35,984.93
2016,10,14,10,36,984.97
2016,10,14,10,37,984.93
2016,10,14,10,38,985.00
2016,10,14,10,39,984.97
2016,10,14,10,40,984.93
2016,10,14,10,41,984.93
2016,10,14,10,42,984.90
2016,10,14,10,43,984.93
2016,10,14,10,44,984.93
2016,10,14,10,45,984.90
2016,10,14,10,46,984.93
2016,10,14,10,47,984.90
2016,10,14,10,48,984.90
2016,10,14,10,49,984.97
2016,10,14,10,50,984.90
2016,10,14,10,51,984.93
2016,10,14,10,52,984.83
2016,10,14,10,53,984.83
2016,10,14,10,54,984.83
2016,10,14,10,55,984.83
2016,10,14,10,56,984.80
2016,10,14,10,57,984.76
2016,10,14,10,58,984.76
2016,10,14,10,59,984.66
2016,10,14,11,00,984.66
2016,10,14,11,01,984.66
2016,10,14,11,02,984.63
2016,10,14,11,03,984.66
2016,10,14,11,04,984.63
2016,10,14,11,05,984.59
2016,10,14,11,06,984.59
2016,10,14,11,07,984.59
2016,10,14,11,08,984.56
2016,10,14,11,09,984.56
2016,10,14,11,10,984.53
2016,10,14,11,11,984.46
2016,10,14,11,12,984.39
2016,10,14,11,13,984.46
2016,10,14,11,14,984.39
2016,10,14,11,15,984.36
2016,10,14,11,16,984.39
2016,10,14,11,17,984.39
2016,10,14,11,18,984.32
2016,10,14,11,19,984.29
2016,10,14,11,20,984.22
2016,10,14,11,21,984.19
2016,10,14,11,22,984.15
2016,10,14,11,23,984.15
2016,10,14,11,24,984.15
2016,10,14,11,25,984.15
2016,10,14,11,26,984.15
2016,10,14,11,27,984.15
2016,10,14,11,28,984.15
2016,10,14,11,29,984.05
2016,10,14,11,30,984.12
2016,10,14,11,31,984.15
2016,10,14,11,32,984.21
2016,10,14,11,33,984.05
2016,10,14,11,34,984.08
2016,10,14,11,35,984.08
2016,10,14,11,36,983.98
2016,10,14,11,37,984.02
2016,10,14,11,38,983.98
2016,10,14,11,39,984.02
2016,10,14,11,40,984.05
2016,10,14,11,41,984.02
2016,10,14,11,42,983.85
2016,10,14,11,43,983.95
2016,10,14,11,44,983.92
2016,10,14,11,45,983.95
2016,10,14,11,46,984.05
2016,10,14,11,47,984.08
2016,10,14,11,48,984.12
2016,10,14,11,49,984.19
2016,10,14,11,50,984.15
2016,10,14,11,51,984.15
2016,10,14,11,52,984.05
2016,10,14,11,53,984.11
2016,10,14,11,54,983.98
2016,10,14,11,55,983.92
2016,10,14,11,56,983.91
2016,10,14,11,57,983.78
2016,10,14,11,58,983.81
2016,10,14,11,59,983.71
2016,10,14,12,00,983.61
2016,10,14,12,01,983.48
2016,10,14,12,02,983.41
2016,10,14,12,03,983.44
2016,10,14,12,04,983.44
2016,10,14,12,05,983.37
2016,10,14,12,06,983.37
2016,10,14,12,07,983.34
2016,10,14,12,08,983.37
2016,10,14,12,09,983.41
2016,10,14,12,10,983.37
2016,10,14,12,11,983.41
2016,10,14,12,12,983.41
2016,10,14,12,13,983.41
2016,10,14,12,14,983.34
2016,10,14,12,15,983.31
2016,10,14,12,16,983.27
2016,10,14,12,17,983.24
2016,10,14,12,18,983.17
2016,10,14,12,19,983.14
2016,10,14,12,20,983.04
2016,10,14,12,21,983.04
2016,10,14,12,22,982.93
2016,10,14,12,23,983.00
2016,10,14,12,24,983.04
2016,10,14,12,25,983.04
2016,10,14,12,26,983.04
2016,10,14,12,27,983.00
2016,10,14,12,28,982.90
2016,10,14,12,29,982.97
2016,10,14,12,30,982.93
2016,10,14,12,31,982.87
2016,10,14,12,32,982.80
2016,10,14,12,33,982.76
2016,10,14,12,34,982.76
2016,10,14,12,35,982.66
2016,10,14,12,36,982.56
2016,10,14,12,37,982.59
2016,10,14,12,38,982.59
2016,10,14,12,39,982.53
2016,10,14,12,40,982.43
2016,10,14,12,41,982.53
2016,10,14,12,42,982.32
2016,10,14,12,43,982.39
2016,10,14,12,44,982.29
2016,10,14,12,45,982.32
2016,10,14,12,46,982.26
2016,10,14,12,47,982.29
2016,10,14,12,48,982.32
2016,10,14,12,49,982.36
2016,10,14,12,50,982.36
2016,10,14,12,51,982.36
2016,10,14,12,52,982.29
2016,10,14,12,53,982.26
2016,10,14,12,54,982.26
2016,10,14,12,55,982.26
2016,10,14,12,56,982.19
2016,10,14,12,57,982.12
2016,10,14,12,58,982.26
2016,10,14,12,59,982.22
2016,10,14,13,00,982.19
2016,10,14,13,01,982.26
2016,10,14,13,02,982.19
2016,10,14,13,03,982.12
2016,10,14,13,04,982.19
2016,10,14,13,05,982.22
2016,10,14,13,06,982.15
2016,10,14,13,07,982.12
2016,10,14,13,08,982.02
2016,10,14,13,09,982.02
2016,10,14,13,10,982.09
2016,10,14,13,11,982.12
2016,10,14,13,12,982.09
2016,10,14,13,13,982.05
2016,10,14,13,14,982.09
2016,10,14,13,15,982.05
2016,10,14,13,16,982.05
2016,10,14,13,17,982.09
2016,10,14,13,18,982.05
2016,10,14,13,19,982.02
2016,10,14,13,20,981.85
2016,10,14,13,21,981.88
2016,10,14,13,22,981.85
2016,10,14,13,23,981.85
2016,10,14,13,24,981.75
2016,10,14,13,25,981.82
2016,10,14,13,26,981.85
2016,10,14,13,27,981.82
2016,10,14,13,28,981.85
2016,10,14,13,29,981.85
2016,10,14,13,30,981.85
2016,10,14,13,31,981.75
2016,10,14,13,32,981.78
2016,10,14,13,33,981.78
2016,10,14,13,34,981.82
2016,10,14,13,35,981.82
2016,10,14,13,36,981.82
2016,10,14,13,37,981.92
2016,10,14,13,38,981.99
2016,10,14,13,39,982.12
2016,10,14,13,40,982.09
2016,10,14,13,41,982.22
2016,10,14,13,42,982.12
2016,10,14,13,43,982.12
2016,10,14,13,44,982.09
2016,10,14,13,45,982.05
2016,10,14,13,46,981.99
2016,10,14,13,47,981.95
2016,10,14,13,48,981.92
2016,10,14,13,49,981.95
2016,10,14,13,50,982.02
2016,10,14,13,51,981.85
2016,10,14,13,52,981.88
2016,10,14,13,53,981.78
2016,10,14,13,54,981.82
2016,10,14,13,55,981.78
2016,10,14,13,56,981.85
2016,10,14,13,57,981.71
2016,10,14,13,58,981.75
2016,10,14,13,59,981.75
2016,10,14,14,00,981.75
2016,10,14,14,01,981.68
2016,10,14,14,02,981.68
2016,10,14,14,03,981.61
2016,10,14,14,04,981.65
2016,10,14,14,05,981.68
2016,10,14,14,06,981.81
2016,10,14,14,07,981.67
2016,10,14,14,08,981.58
2016,10,14,14,09,981.55
2016,10,14,14,10,981.61
2016,10,14,14,11,981.58
2016,10,14,14,12,981.61
2016,10,14,14,13,981.58
2016,10,14,14,14,981.48
2016,10,14,14,15,981.55
2016,10,14,14,16,981.50
2016,10,14,14,17,981.38
2016,10,14,14,18,981.41
2016,10,14,14,19,981.58
2016,10,14,14,20,981.58
2016,10,14,14,21,981.58
2016,10,14,14,22,981.58
2016,10,14,14,23,981.51
2016,10,14,14,24,981.58
2016,10,14,14,25,981.55
2016,10,14,14,26,981.65
2016,10,14,14,27,981.71
2016,10,14,14,28,981.77
2016,10,14,14,29,981.65
2016,10,14,14,30,981.68
2016,10,14,14,31,981.65
2016,10,14,14,32,981.65
2016,10,14,14,33,981.68
2016,10,14,14,34,981.71
2016,10,14,14,35,981.61
2016,10,14,14,36,981.71
2016,10,14,14,37,981.65
2016,10,14,14,38,981.71
2016,10,14,14,39,981.82
2016,10,14,14,40,981.88
2016,10,14,14,41,981.88
2016,10,14,14,42,981.95
2016,10,14,14,43,981.99
2016,10,14,14,44,981.95
2016,10,14,14,45,981.92
2016,10,14,14,46,981.87
2016,10,14,14,47,981.75
2016,10,14,14,48,981.82
2016,10,14,14,49,981.85
2016,10,14,14,50,981.82
2016,10,14,14,51,981.88
2016,10,14,14,52,981.92
2016,10,14,14,53,981.99
2016,10,14,14,54,981.95
2016,10,14,14,55,981.92
2016,10,14,14,56,981.92
2016,10,14,14,57,981.92
2016,10,14,14,58,981.95
2016,10,14,14,59,982.02
2016,10,14,15,00,982.02
2016,10,14,15,01,982.02
2016,10,14,15,02,982.09
2016,10,14,15,03,982.09
2016,10,14,15,04,982.12
2016,10,14,15,05,982.19
2016,10,14,15,06,982.19
2016,10,14,15,07,982.19
2016,10,14,15,08,982.19
2016,10,14,15,09,982.15
2016,10,14,15,10,982.36
2016,10,14,15,11,982.39
2016,10,14,15,12,982.53
2016,10,14,15,13,982.49
2016,10,14,15,14,982.66
2016,10,14,15,15,982.90
2016,10,14,15,16,982.73
2016,10,14,15,17,982.73
2016,10,14,15,18,982.83
2016,10,14,15,19,982.87
2016,10,14,15,20,982.87
2016,10,14,15,21,982.87
2016,10,14,15,22,983.05
2016,10,14,15,23,983.17
2016,10,14,15,24,983.24
2016,10,14,15,25,983.14
2016,10,14,15,26,983.10
2016,10,14,15,27,983.20
2016,10,14,15,28,983.24
2016,10,14,15,29,983.24
2016,10,14,15,30,983.24
2016,10,14,15,31,983.31
2016,10,14,15,32,983.54
2016,10,14,15,33,983.54
2016,10,14,15,34,983.58
2016,10,14,15,35,983.61
2016,10,14,15,36,983.64
2016,10,14,15,37,983.58
2016,10,14,15,38,983.64
2016,10,14,15,39,983.59
2016,10,14,15,40,983.68
2016,10,14,15,41,983.71
2016,10,14,15,42,983.64
2016,10,14,15,43,983.71
2016,10,14,15,44,983.68
2016,10,14,15,45,983.78
2016,10,14,15,46,983.88
2016,10,14,15,47,984.02
2016,10,14,15,48,984.08
2016,10,14,15,49,984.12
2016,10,14,15,50,984.05
2016,10,14,15,51,984.02
2016,10,14,15,52,984.08
2016,10,14,15,53,984.25
2016,10,14,15,54,984.22
2016,10,14,15,55,984.32
2016,10,14,15,56,984.29
2016,10,14,15,57,984.36
2016,10,14,15,58,984.32
2016,10,14,15,59,984.49
2016,10,14,16,00,984.63
2016,10,14,16,01,984.53
2016,10,14,16,02,984.56
2016,10,14,16,03,984.63
2016,10,14,16,04,984.59
2016,10,14,16,05,984.63
2016,10,14,16,06,984.66
2016,10,14,16,07,984.73
2016,10,14,16,08,984.80
2016,10,14,16,09,984.76
2016,10,14,16,10,984.84
2016,10,14,16,11,984.93
2016,10,14,16,12,985.00
2016,10,14,16,13,985.03
2016,10,14,16,14,985.03
2016,10,14,16,15,985.00
2016,10,14,16,16,984.98
2016,10,14,16,17,985.20
2016,10,14,16,18,985.10
2016,10,14,16,19,985.20
2016,10,14,16,20,985.20
2016,10,14,16,21,985.34
2016,10,14,16,22,985.41
2016,10,14,16,23,985.42
2016,10,14,16,24,985.57
2016,10,14,16,25,985.54
2016,10,14,16,26,985.64
2016,10,14,16,27,985.71
2016,10,14,16,28,985.71
2016,10,14,16,29,985.88
2016,10,14,16,30,985.81
2016,10,14,16,31,986.02
2016,10,14,16,32,986.05
2016,10,14,16,33,986.08
2016,10,14,16,34,986.16
2016,10,14,16,35,986.35
2016,10,14,16,36,986.29